Printer-friendly version

IAU Minor Planet Center

Minor Planet Center

(27) Euterpe

Orbital Elements

The following orbital elements are taken from MPO 4876
   (27) Euterpe
Epoch 2007 Apr. 10.0 TT = JDT 2454200.5                 Goffin
M 208.56002              (2000.0)            P               Q
n   0.27418322     Peri.  356.82281     -0.02843262     -0.99921623
a   2.3466166      Node    94.80526     +0.91771938     -0.03701478
e   0.1724629      Incl.    1.58377     +0.39621045     +0.01403002
P   3.59           H    7.0           G   0.15           U   0
From 1618 observations at 79 oppositions, 1853-2000, mean residual 0".53.
An explanation of the orbital elements is available.

These orbital elements are also available in forms suitable for loading into a number of popular planetarium-type software programs.


Ephemeris

The following ephemeris is at intervals of five days. A daily ephemeris covering the same time interval is also available.

Personalized ephemerides for this object (and others) can be generated using the MPES.

Date    TT    R. A. (2000) Decl.     Delta      r     Elong.  Phase     V
 
2007 05 31    21 47.37   -14 17.1    2.225    2.671   104.9    21.5    11.9
2007 06 05    21 49.80   -14 08.2    2.157    2.666   109.0    21.1    11.8
2007 06 10    21 51.71   -14 02.1    2.090    2.661   113.4    20.5    11.7
2007 06 15    21 53.06   -13 59.1    2.025    2.655   117.8    19.8    11.6
2007 06 20    21 53.81   -13 59.4    1.962    2.650   122.4    18.9    11.5
2007 06 25    21 53.93   -14 03.0    1.903    2.644   127.2    17.8    11.4
2007 06 30    21 53.42   -14 10.1    1.846    2.638   132.1    16.6    11.3
2007 07 05    21 52.25   -14 20.7    1.794    2.632   137.2    15.2    11.2
2007 07 10    21 50.43   -14 34.6    1.746    2.626   142.4    13.7    11.1
2007 07 15    21 47.95   -14 51.8    1.702    2.620   147.9    11.9    11.0
2007 07 20    21 44.85   -15 11.9    1.664    2.613   153.4    10.0    10.8
2007 07 25    21 41.18   -15 34.4    1.632    2.606   159.2     8.0    10.7
2007 07 30    21 37.03   -15 58.8    1.606    2.600   165.0     5.8    10.6
2007 08 04    21 32.49   -16 24.4    1.586    2.593   170.9     3.6    10.4
2007 08 09    21 27.66   -16 50.4    1.573    2.586   176.6     1.4    10.2
2007 08 14    21 22.69   -17 16.2    1.567    2.579   176.4     1.4    10.2
2007 08 19    21 17.72   -17 40.9    1.567    2.571   170.7     3.7    10.4
2007 08 24    21 12.90   -18 03.8    1.575    2.564   164.7     6.0    10.5
2007 08 29    21 08.39   -18 24.4    1.589    2.556   158.8     8.2    10.6
2007 09 03    21 04.29   -18 42.3    1.609    2.549   153.0    10.4    10.7
2007 09 08    21 00.72   -18 57.2    1.634    2.541   147.2    12.4    10.8
2007 09 13    20 57.77   -19 08.8    1.666    2.533   141.7    14.3    10.9
2007 09 18    20 55.50   -19 17.0    1.702    2.525   136.2    16.0    11.0
2007 09 23    20 53.97   -19 22.0    1.742    2.517   131.0    17.5    11.1
2007 09 28    20 53.18   -19 23.6    1.786    2.509   125.9    18.9    11.2
2007 10 03    20 53.14   -19 22.1    1.833    2.500   121.0    20.1    11.3
2007 10 08    20 53.82   -19 17.6    1.883    2.492   116.3    21.1    11.4
2007 10 13    20 55.21   -19 10.1    1.935    2.483   111.7    21.9    11.5
2007 10 18    20 57.29   -18 59.7    1.989    2.475   107.2    22.6    11.5
2007 10 23    21 00.00   -18 46.5    2.044    2.466   102.9    23.2    11.6
2007 10 28    21 03.31   -18 30.6    2.100    2.457    98.8    23.6    11.7
2007 11 02    21 07.18   -18 12.2    2.157    2.448    94.8    23.8    11.7
2007 11 07    21 11.55   -17 51.2    2.214    2.439    90.9    24.0    11.8

Back to Bright Minor Planets

Astronomical Headlines Index

MPC


Valid HTML 4.01!